User: anonymous   Login
Location: Goheenville
(40.9070°N, 79.3720°W)
Time: 13:51:40
(UTC-04:00)
Language:

NOAA 11 - Orbit

View from above orbital plane
View from above orbital plane
View from above satellite
View from above satellite

Ground track
Ground track

The orbit data is extracted from the following two-line orbital elements,

1 19531U 88089A   14296.34554091  .00000132  00000-0  90356-4 0   135
2 19531 098.6713 011.7257 0010146 292.4468 067.5631 14.15102714345865
Epoch (UTC): 23 October 2014 08:17:34
Eccentricity: 0.0010146
inclination: 98.6713°
perigee height: 834 km
apogee height: 849 km
right ascension of ascending node: 11.7257°
argument of perigee: 292.4468°
revolutions per day: 14.15102714
mean anomaly at epoch: 67.5631°
orbit number at epoch: 34586

The dashed part of the orbit path shows where the satellite is in the earth's shadow,  

DLR